sat.trackr.live / text

‹ back to catalog

TYVAK-182A

NORAD 48271 · 2021-034D

PAYLOAD ACTIVE UNKNOWN

§ Identity

Operator
Country
IT
Launch date
2021-04-29
Launch site
FRGUI
Launch vehicle
Mass (kg)
RCS (m²)

External: N2YO · Heavens-Above · Gunter

§ Orbital elements

Epoch: 2026-09-20T02:38:39.181344Z

Period
95.56 min
Inclination
97.5625°
Eccentricity
0.0006005
Mean motion
15.06876580 rev/d
Perigee alt
541.6 km
Apogee alt
549.9 km
Semi-major
6,923.9 km
B*
2.3435e-4
RAAN
320.3758°
Arg perigee
20.1647°
Mean anomaly
339.9817°
Rev number
29,412

§ Raw data

TYVAK-182A1 48271U 21034D   26263.11017571  .00003437  00000+0  23435-3 0  99902 48271  97.5625 320.3758 0006005  20.1647 339.9817 15.06876580294121

JSON: /api/v1/satellites/48271 · /tle

For live sub-satellite position, see the globe view (requires WebGL).

§ Visibility from observer

Set your observer location to see the next 7 days of passes ≥ 10°. The values pass through the URL so the page stays shareable.

No JS? Fill the form by hand. The geolocation button needs JavaScript.

§ Radio — SatNOGS DB

ModeDescriptionDownlinkUplink
FM Downlink 401.760 MHz

1 transmitter · refreshed weekly from db.satnogs.org